Location: Mentone
(34.5413°N, 85.5351°W)
Time: 06:41:55
(UTC-06:00)

Tiros 1 despin weight - Visible Passes

Search period start: 22 December 2014 00:00
Search period end: 01 January 2015 00:00
Orbit: 600 x 649 km, 48.2° (Epoch: 20 December)

Date Brightness Start Highest point End Pass type
(mag) Time Alt. Az. Time Alt. Az. Time Alt. Az.
25 Dec ? 05:26:16 10° SSE 05:28:35 14° SE 05:30:54 10° E visible
26 Dec ? 05:43:03 10° SSW 05:47:01 31° SE 05:50:57 10° ENE visible
27 Dec ? 06:01:07 10° SW 06:05:35 70° SE 06:10:01 10° ENE visible
28 Dec ? 04:39:25 10° S 04:42:53 22° SE 04:46:20 10° E visible
28 Dec ? 06:19:53 10° WSW 06:24:18 57° NW 06:28:41 10° NE visible
29 Dec ? 04:58:10 17° SSW 05:01:22 49° SE 05:05:41 10° ENE visible
30 Dec ? 03:40:16 13° ESE 03:40:16 13° ESE 03:41:23 10° E visible
30 Dec ? 05:17:33 26° WSW 05:20:00 78° NW 05:24:28 10° NE visible
31 Dec ? 03:59:15 22° E 03:59:15 22° E 04:01:13 10° ENE visible
31 Dec ? 05:36:30 23° W 05:38:48 40° NNW 05:43:01 10° NE visible
